Station RKXF1 - Upper Henderson Creek, Rookery Bay Reserve, FL Image indicating link to RSS feed of recent meteorological observations for station RKXF1


Conditions at RKXF1 as of
(7:45 am EDT)
1145 GMT on 04/16/2024:
     

Click on the graph icon in the table below to see a time series plot of the last five days of that observation.

5-day plot - Wind Direction Wind Direction (WDIR): E ( 90 deg true )
5-day plot - Wind Speed Wind Speed (WSPD): 4.1 kts
5-day plot - Atmospheric Pressure Atmospheric Pressure (PRES):30.12 in
5-day plot - Air Temperature Air Temperature (ATMP): 61.5 °F
5-day plot - Dew Point Dew Point (DEWP): 58.3 °F
5-day plot -  Wind Speed, Wind Gust and Atmospheric Pressure Combined plot of Wind Speed, Gust, and Air Pressure
Previous observations
TIME
(EDT)
5-day plot - Wind Direction
WDIR
 
5-day plot - Wind Speed
WSPD
kts
5-day plot - Wind Gust
GST
kts
5-day plot - Wave Height
WVHT
ft
5-day plot - Dominant Wave Period
DPD
sec
5-day plot - Average Wave Period
APD
sec
5-day plot - Mean Wave Direction
MWD
 
5-day plot - Atmospheric Pressure
PRES
in
5-day plot - Pressure Tendency
PTDY
in
5-day plot - Air Temperature
ATMP
°F
5-day plot - Water Temperature
WTMP
°F
5-day plot - Dew Point
DEWP
°F
5-day plot - Salinity
SAL
psu
5-day plot - Visibility
VIS
nmi
5-day plot - Tide (above MLLW)
TIDE
ft
2024-04-16 07:30 am E 5.1-----30.12- 60.6- 58.1---
2024-04-16 07:15 am E 4.1-----30.09- 60.1- 57.7---
2024-04-16 07:00 am E 4.1-----30.09+0.00 59.9- 57.9---
2024-04-16 06:45 am E 4.1-----30.09- 59.5- 57.6---
2024-04-16 06:30 am E 5.1-----30.09- 59.4- 57.7---
2024-04-16 06:15 am E 4.1-----30.12- 59.2- 57.6---
2024-04-16 06:00 am E 2.9-----30.09+0.00 59.0- 57.4---
2024-04-16 05:45 am E 2.9-----30.09- 59.2- 57.6---
2024-04-16 05:30 am E 2.9-----30.09- 59.0- 57.4---
2024-04-16 05:15 am E 4.1-----30.09- 58.3- 56.3---
2024-04-16 05:00 am E 4.1-----30.09-0.03 58.3- 56.3---
2024-04-16 04:45 am E 2.9-----30.09- 58.6- 56.3---
2024-04-16 04:30 am E 2.9-----30.09- 58.8- 56.5---
2024-04-16 04:15 am E 2.9-----30.09- 59.5- 57.2---
2024-04-16 04:00 am E 4.1-----30.09-0.03 59.7- 57.4---
2024-04-16 03:45 am E 4.1-----30.09- 59.5- 57.2---
2024-04-16 03:30 am E 4.1-----30.09- 59.5- 57.2---
2024-04-16 03:15 am E 2.9-----30.09- 59.4- 56.8---
2024-04-16 03:00 am E 2.9-----30.09-0.03 59.4- 56.8---
2024-04-16 02:45 am E 2.9-----30.09- 59.7- 56.8---
2024-04-16 02:30 am E 2.9-----30.09- 60.1- 56.8---
2024-04-16 02:15 am E 2.9-----30.12- 60.4- 57.0---
2024-04-16 02:00 amESE 2.9-----30.12-0.03 61.3- 57.6---
2024-04-16 01:45 amESE 2.9-----30.12- 62.1- 58.3---
2024-04-16 01:30 am SE 2.9-----30.12- 62.2- 57.7---
2024-04-16 01:15 am SE 2.9-----30.12- 62.8- 57.6---
2024-04-16 01:00 amESE 2.9-----30.12+0.00 63.5- 57.9---
2024-04-16 12:45 am SE 4.1-----30.12- 64.2- 58.5---
2024-04-16 12:30 am SE 2.9-----30.15- 64.8- 58.6---
2024-04-16 12:15 am SE 2.9-----30.15- 65.7- 58.5---
2024-04-16 12:00 am SE 4.1-----30.12+0.00 66.2- 58.6---
2024-04-15 11:45 pm SE 4.1-----30.15- 66.9- 58.5---
2024-04-15 11:30 pm SE 4.1-----30.15- 67.6- 58.1---
2024-04-15 11:15 pm SE 4.1-----30.15- 68.5- 58.1---
2024-04-15 11:00 pm SE 5.1-----30.15+0.06 69.3- 58.1---
2024-04-15 10:45 pm SE 4.1-----30.15- 70.3- 57.9---
2024-04-15 10:30 pm SE 5.1-----30.12- 71.1- 58.1---
2024-04-15 10:15 pm SE 5.1-----30.12- 70.9- 58.8---
2024-04-15 10:00 pm SE 5.1-----30.12+0.03 70.9- 59.5---
2024-04-15 09:45 pmESE 4.1-----30.12- 69.8- 62.8---
2024-04-15 09:30 pmENE 2.9-----30.12- 69.6- 63.0---
2024-04-15 09:15 pmNNE 1.9-----30.12- 70.5- 63.5---
2024-04-15 09:00 pmNNE 2.9-----30.12+0.03 71.1- 63.0---
2024-04-15 08:45 pmNNE 1.9-----30.09- 72.3- 63.3---
2024-04-15 08:30 pm N 2.9-----30.09- 72.9- 62.8---
2024-04-15 08:15 pm N 4.1-----30.09- 73.4- 62.8---
2024-04-15 08:00 pm N 4.1-----30.09+0.03 73.9- 62.6---
2024-04-15 07:45 pm N 4.1-----30.09- 74.5- 62.6---
2024-04-15 07:30 pmNNW 4.1-----30.09- 75.2- 62.4---
2024-04-15 07:15 pmNNW 5.1-----30.09- 75.9- 62.8---
2024-04-15 07:00 pmNNW 5.1-----30.09+0.00 76.6- 63.0---
2024-04-15 06:45 pmNNW 6.0-----30.09- 77.2- 63.5---
2024-04-15 06:30 pmNNW 6.0-----30.09- 77.9- 63.7---
2024-04-15 06:15 pmNNW 7.0-----30.09- 78.3- 63.1---
2024-04-15 06:00 pmNNW 6.0-----30.09+0.00 78.6- 63.0---
2024-04-15 05:45 pm NW 6.0-----30.09- 78.8- 63.1---
2024-04-15 05:30 pm NW 6.0-----30.09- 79.5- 63.3---
2024-04-15 05:15 pm NW 6.0-----30.06- 80.8- 63.5---
2024-04-15 05:00 pm NW 6.0-----30.06-0.06 80.4- 63.1---
2024-04-15 04:45 pm NW 6.0-----30.09- 80.2- 63.0---
2024-04-15 04:30 pmWNW 7.0-----30.09- 81.0- 63.1---
2024-04-15 04:15 pmWNW 6.0-----30.09- 82.0- 63.1---
2024-04-15 04:00 pm NW 6.0-----30.09-0.03 82.0- 62.6---
2024-04-15 03:45 pm NW 5.1-----30.09- 81.7- 62.2---
2024-04-15 03:30 pm NW 5.1-----30.09- 81.0- 62.6---
2024-04-15 03:15 pm NW 6.0-----30.09- 80.8- 62.4---
2024-04-15 03:00 pm NW 7.0-----30.09-0.06 81.0- 62.6---
2024-04-15 02:45 pm NW 7.0-----30.09- 80.8- 62.4---
2024-04-15 02:30 pm NW 6.0-----30.12- 80.4- 62.6---
2024-04-15 02:15 pmWSW 4.1-----30.12- 83.8- 58.8---
2024-04-15 02:00 pmESE 6.0-----30.12-0.03 83.8- 56.1---
2024-04-15 01:45 pmENE 2.9-----30.12- 83.5- 56.5---
2024-04-15 01:30 pm E 5.1-----30.12- 83.3- 57.0---
2024-04-15 01:15 pm E 5.1-----30.12- 82.8- 56.5---
2024-04-15 01:00 pmESE 5.1-----30.12-0.03 83.3- 57.0---
2024-04-15 12:45 pmESE 6.0-----30.12- 81.9- 57.0---
2024-04-15 12:30 pmESE 6.0-----30.15- 81.5- 56.7---
2024-04-15 12:15 pm E 5.1-----30.15- 80.6- 57.2---
2024-04-15 12:00 pmSSE 5.1-----30.15+0.00 81.3- 58.5---
2024-04-15 11:45 am SE 5.1-----30.15- 80.6- 58.5---
2024-04-15 11:30 amSSE 6.0-----30.15- 80.2- 59.2---
2024-04-15 11:15 amSSE 5.1-----30.15- 79.5- 59.2---
2024-04-15 11:00 amSSE 5.1-----30.15+0.03 79.0- 59.7---
2024-04-15 10:45 am S 4.1-----30.15- 77.5- 59.9---
2024-04-15 10:30 am S 5.1-----30.15- 77.7- 60.1---
2024-04-15 10:15 amSSE 5.1-----30.15- 76.8- 59.7---
2024-04-15 10:00 am SE 4.1-----30.15+0.03 75.4- 60.4---
2024-04-15 09:45 am SE 2.9-----30.15- 72.9- 59.7---
2024-04-15 09:30 amESE 2.9-----30.15- 71.2- 59.5---
2024-04-15 09:15 am E 2.9-----30.15- 69.6- 59.2---
2024-04-15 09:00 am E 2.9-----30.15+0.03 67.8- 59.0---
2024-04-15 08:45 am E 1.9-----30.15- 65.7- 59.2---
2024-04-15 08:30 am E 1.9-----30.12- 62.6- 59.7---
2024-04-15 08:15 am E 2.9-----30.12- 60.6- 59.2---
2024-04-15 08:00 amESE 2.9-----30.12+0.03 59.7- 58.6---